TimeMDT,TemperatureF,Dew PointF,Humidity,Sea Level PressureIn,VisibilityMPH,Wind Direction,Wind SpeedMPH,Gust SpeedMPH,PrecipitationIn,Events,Conditions,WindDirDegrees,DateUTC
12:53 AM,60.1,53.1,78,30.05,10.0,North,5.8,-,N/A,,Clear,10,2013-07-10 06:53:00
1:53 AM,59.0,53.1,81,30.04,10.0,North,5.8,-,N/A,,Clear,360,2013-07-10 07:53:00
2:53 AM,59.0,53.1,81,30.03,10.0,NE,3.5,-,N/A,,Clear,50,2013-07-10 08:53:00
3:53 AM,55.9,53.1,90,30.02,10.0,West,3.5,-,N/A,,Clear,280,2013-07-10 09:53:00
4:53 AM,55.9,53.1,90,30.03,10.0,Calm,Calm,-,N/A,,Clear,0,2013-07-10 10:53:00
5:53 AM,55.0,52.0,89,30.03,10.0,NW,8.1,-,N/A,,Clear,320,2013-07-10 11:53:00
6:53 AM,57.0,53.1,87,30.03,10.0,WNW,4.6,-,N/A,,Clear,300,2013-07-10 12:53:00
7:53 AM,64.9,54.0,68,30.02,10.0,North,3.5,-,N/A,,Clear,350,2013-07-10 13:53:00
8:53 AM,68.0,54.0,61,30.02,10.0,Calm,Calm,-,N/A,,Clear,0,2013-07-10 14:53:00
9:53 AM,75.0,54.0,48,30.00,10.0,SW,5.8,-,N/A,,Clear,220,2013-07-10 15:53:00
10:53 AM,79.0,55.0,44,29.99,10.0,SE,5.8,-,N/A,,Clear,140,2013-07-10 16:53:00
11:53 AM,84.0,46.0,26,29.96,10.0,SSW,5.8,-,N/A,,Clear,200,2013-07-10 17:53:00
12:53 PM,88.0,39.9,18,29.94,10.0,Calm,Calm,-,N/A,,Clear,0,2013-07-10 18:53:00
1:53 PM,86.0,42.1,21,29.93,10.0,South,4.6,-,N/A,,Partly Cloudy,190,2013-07-10 19:53:00
2:53 PM,89.1,39.9,18,29.91,10.0,South,10.4,-,N/A,,Clear,180,2013-07-10 20:53:00
3:53 PM,91.9,35.1,13,29.89,10.0,Calm,Calm,-,0.00,,Clear,0,2013-07-10 21:53:00
4:53 PM,91.9,30.9,11,29.86,8.0,West,8.1,-,N/A,,Clear,270,2013-07-10 22:53:00
5:53 PM,91.9,28.9,11,29.84,10.0,West,8.1,-,N/A,,Clear,280,2013-07-10 23:53:00
6:53 PM,89.1,39.9,18,29.83,10.0,North,6.9,-,N/A,,Clear,360,2013-07-11 00:53:00
7:53 PM,82.0,39.9,22,29.83,10.0,North,9.2,-,N/A,,Clear,10,2013-07-11 01:53:00
8:53 PM,73.0,39.9,30,29.86,10.0,North,9.2,-,N/A,,Clear,10,2013-07-11 02:53:00
9:53 PM,75.9,46.0,35,29.85,10.0,ENE,6.9,-,N/A,,Clear,70,2013-07-11 03:53:00
10:53 PM,75.0,53.1,46,29.85,10.0,East,6.9,-,N/A,,Clear,80,2013-07-11 04:53:00
11:53 PM,61.0,52.0,72,29.88,10.0,NNW,8.1,-,N/A,,Clear,340,2013-07-11 05:53:00